Orbital Elements at Epoch 2459200.5 (2020-Dec-17.0) TDB
Reference: JPL 33 (heliocentric ecliptic J2000)
Element | Value | Uncertainty (1-sigma) | Units |
e | .1314942204793909 | 2.9706e-08 | |
a | 2.339571329373968 | 6.6646e-09 | au |
q | 2.031931221162006 | 7.0545e-08 | au |
i | 5.43689100332698 | 3.7001e-06 | deg |
node | 134.8960820199273 | 3.1832e-05 | deg |
peri | 68.84637118660086 | 3.4854e-05 | deg |
M | 240.8631741542861 | 1.5498e-05 | deg |
tp | 2459633.060030348226 (2022-Feb-22.56003035) | 5.7132e-05 | TDB |
period | 1307.082086667527 3.58 | 5.5851e-06 1.529e-08 | d yr |
n | .275422640759953 | 1.1769e-09 | deg/d |
Q | 2.64721143758593 | 7.541e-09 | au |
|
| | Orbit Determination Parameters
Additional Information
|